nws-alerts: Checking more than four warning/county codes can delay the loading of your pages. You should use a cron job to get the data.
EllijayWeather Station Historical Data
Daily Summary for November 14, 2018 Units:  English    Metric   Both
Daily Weekly Monthly Yearly Custom
  High: Low: Average:
Temperature: 48.7 °F 41.4 °F 44.5 °F
Dew Point: 38.5 °F 25.5 °F 29.3 °F
Humidity: 68% 48% 55%
Wind Speed: 6.0mph 0.0mph 0.6mph
Wind Gust: 12.0mph - -
Wind- - SSE
Pressure: 30.38 in 30.20 in -
Precipitation: 0.14 in    
Historical Graphs
 
 
Tabular Data for November 14, 2018
Time Temperature Dew Point Pressure Wind Wind Speed Wind Gust Humidity Rainfall Rate (Hourly) solar
00:04 42.1 °F 27.9 °F 30.24 in Calm     57% 0.00 in meteobridge W/m2
00:09 42.1 °F 28.4 °F 30.25 in Calm   1.0 mph 58% 0.00 in meteobridge W/m2
00:14 41.7 °F 28.0 °F 30.26 in West 0.9 mph 3.0 mph 58% 0.00 in meteobridge W/m2
00:19 41.7 °F 28.0 °F 30.26 in Calm   4.0 mph 58% 0.00 in meteobridge W/m2
00:24 41.7 °F 28.0 °F 30.27 in Calm   2.0 mph 58% 0.00 in meteobridge W/m2
00:29 41.5 °F 27.9 °F 30.27 in Calm     58% 0.00 in meteobridge W/m2
00:34 41.5 °F 28.2 °F 30.27 in Calm   4.0 mph 59% 0.00 in meteobridge W/m2
00:39 41.4 °F 28.0 °F 30.28 in Calm   1.0 mph 59% 0.00 in meteobridge W/m2
00:44 41.4 °F 28.0 °F 30.28 in Calm     59% 0.00 in meteobridge W/m2
00:49 41.4 °F 27.7 °F 30.28 in Calm   2.0 mph 58% 0.00 in meteobridge W/m2
00:54 41.4 °F 27.7 °F 30.28 in Calm     58% 0.00 in meteobridge W/m2
00:59 41.4 °F 27.7 °F 30.28 in Calm     58% 0.00 in meteobridge W/m2
01:04 41.4 °F 27.7 °F 30.27 in Calm     58% 0.00 in meteobridge W/m2
01:09 41.5 °F 27.5 °F 30.27 in Calm     57% 0.00 in meteobridge W/m2
01:14 41.5 °F 27.5 °F 30.26 in Calm     57% 0.00 in meteobridge W/m2
01:19 41.7 °F 27.1 °F 30.26 in Calm     56% 0.00 in meteobridge W/m2
01:24 41.9 °F 27.3 °F 30.25 in Calm     56% 0.00 in meteobridge W/m2
01:29 42.1 °F 27.1 °F 30.26 in Calm     55% 0.00 in meteobridge W/m2
01:34 42.3 °F 27.3 °F 30.26 in Calm     55% 0.00 in meteobridge W/m2
01:39 42.4 °F 27.5 °F 30.26 in Calm     55% 0.00 in meteobridge W/m2
01:44 42.6 °F 27.5 °F 30.27 in NNW 2.0 mph 4.0 mph 55% 0.00 in meteobridge W/m2
01:49 42.8 °F 27.7 °F 30.27 in Calm   1.0 mph 55% 0.00 in meteobridge W/m2
01:54 42.6 °F 28.0 °F 30.27 in WNW 4.0 mph 4.0 mph 56% 0.00 in meteobridge W/m2
01:59 42.4 °F 28.8 °F 30.27 in NW 2.0 mph 5.0 mph 58% 0.00 in meteobridge W/m2
02:04 42.1 °F 28.8 °F 30.27 in NW 2.0 mph 6.0 mph 59% 0.00 in meteobridge W/m2
02:09 41.7 °F 28.4 °F 30.27 in West 0.9 mph 1.0 mph 59% 0.00 in meteobridge W/m2
02:14 41.5 °F 28.2 °F 30.26 in Calm   3.0 mph 59% 0.00 in meteobridge W/m2
02:19 41.5 °F 27.9 °F 30.27 in Calm     58% 0.00 in meteobridge W/m2
02:24 41.5 °F 27.9 °F 30.27 in Calm   1.0 mph 58% 0.00 in meteobridge W/m2
02:29 41.5 °F 27.9 °F 30.28 in NW 2.0 mph 2.0 mph 58% 0.00 in meteobridge W/m2
02:34 41.5 °F 27.9 °F 30.28 in Calm   2.0 mph 58% 0.00 in meteobridge W/m2
02:39 41.5 °F 27.9 °F 30.28 in Calm     58% 0.00 in meteobridge W/m2
02:44 41.5 °F 27.5 °F 30.28 in Calm     57% 0.00 in meteobridge W/m2
02:49 41.5 °F 27.5 °F 30.28 in NE 0.9 mph 1.0 mph 57% 0.00 in meteobridge W/m2
02:54 41.7 °F 27.7 °F 30.28 in Calm     57% 0.00 in meteobridge W/m2
02:59 41.7 °F 27.7 °F 30.28 in Calm     57% 0.00 in meteobridge W/m2
03:04 41.7 °F 27.7 °F 30.28 in Calm     57% 0.00 in meteobridge W/m2
03:09 41.9 °F 27.3 °F 30.28 in Calm     56% 0.00 in meteobridge W/m2
03:14 41.7 °F 27.7 °F 30.28 in Calm     57% 0.00 in meteobridge W/m2
03:19 41.9 °F 27.9 °F 30.28 in Calm     57% 0.00 in meteobridge W/m2
03:24 42.1 °F 27.5 °F 30.27 in Calm     56% 0.00 in meteobridge W/m2
03:29 42.1 °F 27.5 °F 30.28 in Calm     56% 0.00 in meteobridge W/m2
03:34 42.1 °F 27.5 °F 30.27 in Calm     56% 0.00 in meteobridge W/m2
03:39 42.1 °F 27.5 °F 30.28 in Calm     56% 0.00 in meteobridge W/m2
03:44 42.1 °F 27.5 °F 30.27 in Calm     56% 0.00 in meteobridge W/m2
03:49 42.3 °F 27.3 °F 30.28 in Calm     55% 0.00 in meteobridge W/m2
03:54 42.3 °F 27.3 °F 30.28 in Calm     55% 0.00 in meteobridge W/m2
03:59 42.4 °F 27.5 °F 30.29 in Calm     55% 0.00 in meteobridge W/m2
04:04 42.4 °F 27.5 °F 30.29 in NW 0.9 mph 1.0 mph 55% 0.00 in meteobridge W/m2
04:09 42.4 °F 27.5 °F 30.29 in Calm   2.0 mph 55% 0.00 in meteobridge W/m2
04:14 42.4 °F 27.5 °F 30.29 in Calm     55% 0.00 in meteobridge W/m2
04:19 42.4 °F 27.5 °F 30.29 in Calm   1.0 mph 55% 0.00 in meteobridge W/m2
04:24 42.3 °F 27.7 °F 30.29 in Calm   2.0 mph 56% 0.00 in meteobridge W/m2
04:29 42.1 °F 27.5 °F 30.28 in Calm   2.0 mph 56% 0.00 in meteobridge W/m2
04:34 42.1 °F 27.1 °F 30.28 in Calm     55% 0.00 in meteobridge W/m2
04:39 42.1 °F 27.1 °F 30.28 in Calm     55% 0.00 in meteobridge W/m2
04:44 42.1 °F 27.1 °F 30.27 in Calm   1.0 mph 55% 0.00 in meteobridge W/m2
04:49 41.9 °F 27.0 °F 30.27 in Calm     55% 0.00 in meteobridge W/m2
04:54 41.9 °F 27.0 °F 30.27 in Calm     55% 0.00 in meteobridge W/m2
04:59 42.1 °F 27.1 °F 30.27 in Calm     55% 0.00 in meteobridge W/m2
05:04 42.1 °F 26.6 °F 30.27 in Calm     54% 0.00 in meteobridge W/m2
05:09 42.1 °F 26.6 °F 30.27 in Calm     54% 0.00 in meteobridge W/m2
05:14 42.1 °F 26.6 °F 30.27 in Calm     54% 0.00 in meteobridge W/m2
05:19 42.1 °F 26.6 °F 30.28 in Calm     54% 0.00 in meteobridge W/m2
05:24 42.3 °F 26.4 °F 30.28 in Calm     53% 0.00 in meteobridge W/m2
05:29 42.3 °F 26.4 °F 30.28 in Calm     53% 0.00 in meteobridge W/m2
05:34 42.3 °F 26.4 °F 30.29 in WNW 2.0 mph 3.0 mph 53% 0.00 in meteobridge W/m2
05:39 42.3 °F 26.4 °F 30.29 in Calm     53% 0.00 in meteobridge W/m2
05:44 42.3 °F 26.4 °F 30.29 in West 0.9 mph 2.0 mph 53% 0.00 in meteobridge W/m2
05:49 42.3 °F 26.4 °F 30.29 in NW 0.9 mph 1.0 mph 53% 0.00 in meteobridge W/m2
05:54 42.1 °F 26.2 °F 30.29 in Calm   1.0 mph 53% 0.00 in meteobridge W/m2
05:59 42.1 °F 26.2 °F 30.29 in Calm     53% 0.00 in meteobridge W/m2
06:04 42.1 °F 26.2 °F 30.30 in Calm     53% 0.00 in meteobridge W/m2
06:09 42.1 °F 26.2 °F 30.30 in Calm     53% 0.00 in meteobridge W/m2
06:14 42.1 °F 26.2 °F 30.30 in Calm     53% 0.00 in meteobridge W/m2
06:19 42.1 °F 26.2 °F 30.31 in Calm     53% 0.00 in meteobridge W/m2
06:24 41.9 °F 26.1 °F 30.31 in Calm     53% 0.00 in meteobridge W/m2
06:29 42.1 °F 26.2 °F 30.32 in Calm     53% 0.00 in meteobridge W/m2
06:34 41.9 °F 26.1 °F 30.31 in Calm     53% 0.00 in meteobridge W/m2
06:39 41.9 °F 26.1 °F 30.32 in Calm     53% 0.00 in meteobridge W/m2
06:44 41.9 °F 26.1 °F 30.32 in Calm     53% 0.00 in meteobridge W/m2
06:49 42.1 °F 26.2 °F 30.32 in Calm     53% 0.00 in meteobridge W/m2
06:54 42.1 °F 26.2 °F 30.32 in Calm   1.0 mph 53% 0.00 in meteobridge W/m2
06:59 42.1 °F 26.2 °F 30.32 in Calm     53% 0.00 in meteobridge W/m2
07:04 42.1 °F 26.2 °F 30.32 in Calm     53% 0.00 in meteobridge W/m2
07:09 42.1 °F 26.2 °F 30.32 in Calm     53% 0.00 in meteobridge W/m2
07:14 42.1 °F 25.7 °F 30.33 in Calm     52% 0.00 in meteobridge W/m2
07:19 42.1 °F 25.7 °F 30.33 in Calm   2.0 mph 52% 0.00 in meteobridge W/m2
07:24 42.1 °F 25.7 °F 30.33 in Calm   1.0 mph 52% 0.00 in meteobridge W/m2
07:29 42.1 °F 25.7 °F 30.33 in Calm     52% 0.00 in meteobridge W/m2
07:34 41.9 °F 26.1 °F 30.32 in Calm     53% 0.00 in meteobridge W/m2
07:39 41.9 °F 25.5 °F 30.32 in Calm     52% 0.00 in meteobridge W/m2
07:44 41.9 °F 25.5 °F 30.32 in Calm     52% 0.00 in meteobridge W/m2
07:49 41.9 °F 25.5 °F 30.32 in Calm     52% 0.00 in meteobridge W/m2
07:54 42.1 °F 25.7 °F 30.33 in Calm     52% 0.00 in meteobridge W/m2
07:59 42.1 °F 25.7 °F 30.33 in Calm     52% 0.00 in meteobridge W/m2
08:04 42.3 °F 25.9 °F 30.34 in Calm     52% 0.00 in meteobridge W/m2
08:09 42.3 °F 25.9 °F 30.34 in Calm     52% 0.00 in meteobridge W/m2
08:14 42.3 °F 25.9 °F 30.33 in Calm   1.0 mph 52% 0.00 in meteobridge W/m2
08:19 42.3 °F 25.9 °F 30.34 in Calm     52% 0.00 in meteobridge W/m2
08:24 42.3 °F 25.9 °F 30.34 in Calm     52% 0.00 in meteobridge W/m2
08:29 42.4 °F 26.1 °F 30.34 in Calm   1.0 mph 52% 0.00 in meteobridge W/m2
08:34 42.4 °F 25.5 °F 30.34 in Calm   1.0 mph 51% 0.00 in meteobridge W/m2
08:39 42.4 °F 25.5 °F 30.34 in Calm     51% 0.00 in meteobridge W/m2
08:44 42.4 °F 25.5 °F 30.35 in Calm     51% 0.00 in meteobridge W/m2
08:49 42.6 °F 25.7 °F 30.35 in Calm   1.0 mph 51% 0.00 in meteobridge W/m2
08:54 42.6 °F 25.7 °F 30.34 in Calm     51% 0.00 in meteobridge W/m2
08:59 42.6 °F 25.7 °F 30.35 in Calm     51% 0.00 in meteobridge W/m2
09:04 43.0 °F 26.1 °F 30.35 in Calm     51% 0.00 in meteobridge W/m2
09:09 43.0 °F 26.1 °F 30.36 in Calm   1.0 mph 51% 0.00 in meteobridge W/m2
09:14 43.0 °F 26.1 °F 30.36 in Calm     51% 0.00 in meteobridge W/m2
09:19 43.2 °F 26.2 °F 30.36 in Calm     51% 0.00 in meteobridge W/m2
09:24 43.2 °F 26.2 °F 30.36 in Calm     51% 0.00 in meteobridge W/m2
09:29 43.2 °F 26.2 °F 30.34 in Calm     51% 0.00 in meteobridge W/m2
09:34 43.3 °F 26.4 °F 30.36 in Calm   2.0 mph 51% 0.00 in meteobridge W/m2
09:39 43.5 °F 26.6 °F 30.37 in Calm     51% 0.00 in meteobridge W/m2
09:44 43.5 °F 26.1 °F 30.37 in Calm     50% 0.00 in meteobridge W/m2
09:49 43.7 °F 26.2 °F 30.37 in Calm     50% 0.00 in meteobridge W/m2
09:54 43.9 °F 26.4 °F 30.36 in Calm     50% 0.00 in meteobridge W/m2
09:59 44.1 °F 26.6 °F 30.37 in Calm     50% 0.00 in meteobridge W/m2
10:04 44.4 °F 27.0 °F 30.36 in Calm   1.0 mph 50% 0.00 in meteobridge W/m2
10:09 45.3 °F 27.3 °F 30.35 in Calm     49% 0.00 in meteobridge W/m2
10:14 46.2 °F 28.0 °F 30.35 in Calm     49% 0.00 in meteobridge W/m2
10:19 46.8 °F 28.0 °F 30.35 in Calm     48% 0.00 in meteobridge W/m2
10:24 46.9 °F 28.2 °F 30.35 in Calm   1.0 mph 48% 0.00 in meteobridge W/m2
10:29 47.5 °F 28.8 °F 30.35 in Calm   5.0 mph 48% 0.00 in meteobridge W/m2
10:34 47.7 °F 28.9 °F 30.35 in Calm   4.0 mph 48% 0.00 in meteobridge W/m2
10:39 47.8 °F 29.7 °F 30.35 in SE 0.9 mph 4.0 mph 49% 0.00 in meteobridge W/m2
10:44 48.0 °F 30.2 °F 30.35 in SE 2.0 mph 4.0 mph 50% 0.00 in meteobridge W/m2
10:49 48.0 °F 30.7 °F 30.36 in Calm   2.0 mph 51% 0.00 in meteobridge W/m2
10:54 48.0 °F 31.6 °F 30.35 in Calm   4.0 mph 53% 0.00 in meteobridge W/m2
10:59 48.2 °F 32.4 °F 30.35 in Calm     54% 0.00 in meteobridge W/m2
11:04 48.4 °F 32.5 °F 30.36 in Calm     54% 0.00 in meteobridge W/m2
11:09 48.4 °F 32.5 °F 30.36 in Calm     54% 0.00 in meteobridge W/m2
11:14 48.4 °F 32.9 °F 30.35 in Calm   1.0 mph 55% 0.00 in meteobridge W/m2
11:19 48.4 °F 32.9 °F 30.35 in Calm   1.0 mph 55% 0.00 in meteobridge W/m2
11:24 48.4 °F 33.4 °F 30.36 in Calm     56% 0.00 in meteobridge W/m2
11:28 48.4 °F 33.4 °F 30.37 in Calm   4.0 mph 56% 0.00 in meteobridge W/m2
11:34 48.4 °F 33.4 °F 30.37 in Calm   1.0 mph 56% 0.00 in meteobridge W/m2
11:39 48.4 °F 33.4 °F 30.38 in Calm   1.0 mph 56% 0.00 in meteobridge W/m2
11:44 48.4 °F 33.4 °F 30.38 in Calm     56% 0.00 in meteobridge W/m2
11:48 48.2 °F 33.6 °F 30.37 in Calm   1.0 mph 57% 0.00 in meteobridge W/m2
11:54 48.4 °F 33.8 °F 30.36 in Calm   1.0 mph 57% 0.00 in meteobridge W/m2
11:59 48.4 °F 33.8 °F 30.36 in Calm   1.0 mph 57% 0.00 in meteobridge W/m2
12:04 48.2 °F 33.6 °F 30.35 in Calm     57% 0.00 in meteobridge W/m2
12:09 48.2 °F 33.6 °F 30.34 in Calm     57% 0.00 in meteobridge W/m2
12:14 48.4 °F 33.8 °F 30.34 in Calm   2.0 mph 57% 0.00 in meteobridge W/m2
12:19 48.4 °F 33.8 °F 30.33 in SSE 2.0 mph 2.0 mph 57% 0.00 in meteobridge W/m2
12:24 48.4 °F 33.8 °F 30.32 in SE 0.9 mph 4.0 mph 57% 0.00 in meteobridge W/m2
12:29 48.4 °F 33.8 °F 30.33 in Calm     57% 0.00 in meteobridge W/m2
12:34 48.4 °F 34.3 °F 30.33 in Calm     58% 0.00 in meteobridge W/m2
12:39 48.6 °F 34.5 °F 30.33 in Calm     58% 0.00 in meteobridge W/m2
12:44 48.6 °F 34.9 °F 30.33 in Calm   2.0 mph 59% 0.00 in meteobridge W/m2
12:49 48.6 °F 35.2 °F 30.32 in Calm   4.0 mph 60% 0.00 in meteobridge W/m2
12:54 48.6 °F 35.2 °F 30.32 in Calm   2.0 mph 60% 0.00 in meteobridge W/m2
12:59 48.6 °F 35.2 °F 30.32 in SE 4.0 mph 4.0 mph 60% 0.00 in meteobridge W/m2
13:04 48.2 °F 35.4 °F 30.32 in Calm   2.0 mph 61% 0.00 in meteobridge W/m2
13:09 48.0 °F 34.9 °F 30.31 in SE 0.9 mph 5.0 mph 60% 0.00 in meteobridge W/m2
13:14 48.0 °F 34.9 °F 30.31 in Calm   3.0 mph 60% 0.00 in meteobridge W/m2
13:18 48.0 °F 34.9 °F 30.30 in SE 4.0 mph 5.0 mph 60% 0.00 in meteobridge W/m2
13:24 48.0 °F 34.9 °F 30.30 in Calm   1.0 mph 60% 0.00 in meteobridge W/m2
13:29 48.0 °F 35.2 °F 30.29 in Calm     61% 0.00 in meteobridge W/m2
13:34 48.0 °F 35.2 °F 30.29 in Calm   5.0 mph 61% 0.00 in meteobridge W/m2
13:39 48.0 °F 35.6 °F 30.29 in SE 0.9 mph 6.0 mph 62% 0.00 in meteobridge W/m2
13:44 48.2 °F 36.1 °F 30.29 in Calm   4.0 mph 63% 0.00 in meteobridge W/m2
13:49 48.4 °F 36.7 °F 30.29 in Calm   2.0 mph 64% 0.00 in meteobridge W/m2
13:54 48.4 °F 37.6 °F 30.28 in Calm   4.0 mph 66% 0.00 in meteobridge W/m2
13:59 48.4 °F 37.6 °F 30.28 in Calm     66% 0.00 in meteobridge W/m2
14:04 48.6 °F 38.1 °F 30.27 in ESE 4.9 mph 7.0 mph 67% 0.00 in meteobridge W/m2
14:09 48.6 °F 38.1 °F 30.27 in Calm   4.0 mph 67% 0.00 in meteobridge W/m2
14:14 48.6 °F 38.5 °F 30.27 in East 2.0 mph 5.0 mph 68% 0.00 in meteobridge W/m2
14:19 48.6 °F 38.5 °F 30.27 in SSE 2.0 mph 5.0 mph 68% 0.00 in meteobridge W/m2
14:24 48.7 °F 38.3 °F 30.27 in Calm   1.0 mph 67% 0.00 in meteobridge W/m2
14:29 48.7 °F 37.9 °F 30.27 in SE 2.0 mph 4.0 mph 66% 0.00 in meteobridge W/m2
14:34 48.7 °F 38.3 °F 30.27 in SE 4.9 mph 5.0 mph 67% 0.00 in meteobridge W/m2
14:39 48.6 °F 38.1 °F 30.26 in SE 2.0 mph 6.0 mph 67% 0.00 in meteobridge W/m2
14:44 48.6 °F 38.1 °F 30.27 in Calm     67% 0.00 in meteobridge W/m2
14:49 48.6 °F 37.8 °F 30.26 in Calm   8.0 mph 66% 0.00 in meteobridge W/m2
14:54 48.6 °F 37.8 °F 30.26 in SE 0.9 mph 6.0 mph 66% 0.00 in meteobridge W/m2
14:58 48.6 °F 37.8 °F 30.26 in Calm   2.0 mph 66% 0.00 in meteobridge W/m2
15:04 48.4 °F 37.6 °F 30.26 in Calm   4.0 mph 66% 0.00 in meteobridge W/m2
15:09 48.4 °F 37.2 °F 30.26 in Calm     65% 0.00 in meteobridge W/m2
15:14 48.2 °F 36.7 °F 30.26 in Calm   4.0 mph 64% 0.00 in meteobridge W/m2
15:19 48.0 °F 36.0 °F 30.26 in Calm   4.0 mph 63% 0.00 in meteobridge W/m2
15:24 47.8 °F 35.4 °F 30.25 in SE 0.9 mph 4.0 mph 62% 0.00 in meteobridge W/m2
15:29 47.8 °F 35.1 °F 30.25 in SE 2.0 mph 4.0 mph 61% 0.00 in meteobridge W/m2
15:34 47.7 °F 34.9 °F 30.25 in SSE 0.9 mph 2.0 mph 61% 0.00 in meteobridge W/m2
15:39 47.5 °F 34.7 °F 30.24 in Calm   3.0 mph 61% 0.00 in meteobridge W/m2
15:44 47.3 °F 33.6 °F 30.25 in Calm   1.0 mph 59% 0.00 in meteobridge W/m2
15:49 47.1 °F 33.4 °F 30.26 in Calm     59% 0.01 in meteobridge W/m2
15:54 46.9 °F 32.9 °F 30.27 in SE 2.0 mph 5.0 mph 58% 0.01 in meteobridge W/m2
15:59 46.8 °F 32.7 °F 30.26 in East 2.0 mph 6.0 mph 58% 0.01 in meteobridge W/m2
16:04 46.6 °F 32.5 °F 30.25 in Calm   1.0 mph 58% 0.01 in meteobridge W/m2
16:09 46.4 °F 32.4 °F 30.25 in Calm   4.0 mph 58% 0.02 in meteobridge W/m2
16:14 46.2 °F 32.2 °F 30.25 in Calm   5.0 mph 58% 0.02 in meteobridge W/m2
16:19 46.0 °F 31.6 °F 30.25 in Calm   5.0 mph 57% 0.02 in meteobridge W/m2
16:24 45.9 °F 31.5 °F 30.24 in ESE 2.0 mph 5.0 mph 57% 0.02 in meteobridge W/m2
16:29 45.9 °F 31.1 °F 30.24 in Calm   7.0 mph 56% 0.02 in meteobridge W/m2
16:33 45.7 °F 30.9 °F 30.25 in Calm   2.0 mph 56% 0.03 in meteobridge W/m2
16:39 45.7 °F 30.4 °F 30.25 in Calm   2.0 mph 55% 0.04 in meteobridge W/m2
16:44 45.7 °F 30.4 °F 30.24 in Calm   5.0 mph 55% 0.04 in meteobridge W/m2
16:49 45.7 °F 30.0 °F 30.25 in Calm   1.0 mph 54% 0.03 in meteobridge W/m2
16:54 45.5 °F 29.8 °F 30.25 in SSE 0.9 mph 2.0 mph 54% 0.03 in meteobridge W/m2
16:59 45.3 °F 29.7 °F 30.25 in Calm     54% 0.03 in meteobridge W/m2
17:04 45.3 °F 29.7 °F 30.24 in Calm   4.0 mph 54% 0.03 in meteobridge W/m2
17:09 45.3 °F 29.7 °F 30.24 in Calm   5.0 mph 54% 0.02 in meteobridge W/m2
17:14 45.1 °F 28.9 °F 30.24 in Calm   2.0 mph 53% 0.02 in meteobridge W/m2
17:19 45.1 °F 28.9 °F 30.24 in SE 0.9 mph 2.0 mph 53% 0.02 in meteobridge W/m2
17:24 45.1 °F 28.9 °F 30.24 in Calm   1.0 mph 53% 0.02 in meteobridge W/m2
17:29 45.3 °F 29.1 °F 30.24 in Calm   6.0 mph 53% 0.02 in meteobridge W/m2
17:34 45.3 °F 29.1 °F 30.24 in SE 2.0 mph 6.0 mph 53% 0.01 in meteobridge W/m2
17:39 45.3 °F 29.1 °F 30.23 in SE 0.9 mph 2.0 mph 53% 0.00 in meteobridge W/m2
17:44 45.3 °F 28.8 °F 30.23 in Calm   4.0 mph 52% 0.00 in meteobridge W/m2
17:49 45.3 °F 28.8 °F 30.23 in Calm   5.0 mph 52% 0.00 in meteobridge W/m2
17:53 45.3 °F 28.8 °F 30.22 in Calm   4.0 mph 52% 0.00 in meteobridge W/m2
17:59 45.3 °F 28.8 °F 30.22 in SE 0.9 mph 2.0 mph 52% 0.00 in meteobridge W/m2
18:04 45.3 °F 28.8 °F 30.23 in Calm     52% 0.00 in meteobridge W/m2
18:09 45.3 °F 28.8 °F 30.23 in SE 4.9 mph 5.0 mph 52% 0.00 in meteobridge W/m2
18:14 45.3 °F 28.8 °F 30.24 in Calm   1.0 mph 52% 0.00 in meteobridge W/m2
18:19 45.5 °F 28.9 °F 30.24 in SE 2.0 mph 2.0 mph 52% 0.00 in meteobridge W/m2
18:24 45.5 °F 28.9 °F 30.24 in Calm   4.0 mph 52% 0.00 in meteobridge W/m2
18:29 45.7 °F 28.6 °F 30.24 in SE 2.0 mph 5.0 mph 51% 0.00 in meteobridge W/m2
18:34 45.7 °F 28.6 °F 30.24 in East 2.0 mph 8.0 mph 51% 0.00 in meteobridge W/m2
18:39 45.7 °F 28.6 °F 30.24 in SSE 4.0 mph 5.0 mph 51% 0.00 in meteobridge W/m2
18:44 45.7 °F 29.1 °F 30.23 in Calm   6.0 mph 52% 0.00 in meteobridge W/m2
18:49 45.7 °F 29.1 °F 30.23 in SSW 4.9 mph 6.0 mph 52% 0.00 in meteobridge W/m2
18:54 45.7 °F 29.1 °F 30.22 in Calm   5.0 mph 52% 0.00 in meteobridge W/m2
18:59 45.7 °F 29.1 °F 30.24 in SE 2.0 mph 4.0 mph 52% 0.00 in meteobridge W/m2
19:04 45.5 °F 28.9 °F 30.22 in ESE 2.0 mph 4.0 mph 52% 0.00 in meteobridge W/m2
19:09 45.5 °F 28.9 °F 30.23 in SE 0.9 mph 4.0 mph 52% 0.00 in meteobridge W/m2
19:14 45.5 °F 28.9 °F 30.22 in ESE 4.0 mph 8.0 mph 52% 0.00 in meteobridge W/m2
19:19 45.5 °F 28.9 °F 30.22 in SE 0.9 mph 7.0 mph 52% 0.00 in meteobridge W/m2
19:24 45.5 °F 28.9 °F 30.22 in East 0.9 mph 7.0 mph 52% 0.00 in meteobridge W/m2
19:29 45.5 °F 28.9 °F 30.23 in Calm   5.0 mph 52% 0.00 in meteobridge W/m2
19:34 45.5 °F 28.9 °F 30.23 in SE 2.0 mph 4.0 mph 52% 0.00 in meteobridge W/m2
19:39 45.5 °F 28.9 °F 30.24 in Calm   7.0 mph 52% 0.00 in meteobridge W/m2
19:44 45.5 °F 29.3 °F 30.24 in SE 0.9 mph 6.0 mph 53% 0.00 in meteobridge W/m2
19:49 45.5 °F 29.3 °F 30.23 in Calm   5.0 mph 53% 0.00 in meteobridge W/m2
19:53 45.5 °F 29.3 °F 30.24 in Calm   5.0 mph 53% 0.01 in meteobridge W/m2
19:59 45.3 °F 29.1 °F 30.23 in Calm   6.0 mph 53% 0.01 in meteobridge W/m2
20:04 45.3 °F 29.1 °F 30.24 in East 4.0 mph 5.0 mph 53% 0.02 in meteobridge W/m2
20:09 45.3 °F 29.1 °F 30.24 in ESE 0.9 mph 7.0 mph 53% 0.02 in meteobridge W/m2
20:14 45.3 °F 29.1 °F 30.24 in Calm   4.0 mph 53% 0.02 in meteobridge W/m2
20:19 45.1 °F 28.9 °F 30.24 in Calm   6.0 mph 53% 0.02 in meteobridge W/m2
20:24 45.1 °F 28.9 °F 30.25 in ESE 2.0 mph 4.0 mph 53% 0.03 in meteobridge W/m2
20:29 45.1 °F 28.6 °F 30.25 in Calm   4.0 mph 52% 0.04 in meteobridge W/m2
20:34 45.0 °F 28.4 °F 30.25 in East 6.0 mph 12.0 mph 52% 0.04 in meteobridge W/m2
20:39 45.0 °F 28.4 °F 30.24 in ESE 2.0 mph 4.0 mph 52% 0.04 in meteobridge W/m2
20:44 44.8 °F 28.2 °F 30.24 in Calm   5.0 mph 52% 0.04 in meteobridge W/m2
20:49 44.8 °F 28.2 °F 30.24 in ESE 4.0 mph 6.0 mph 52% 0.05 in meteobridge W/m2
20:54 44.6 °F 28.0 °F 30.22 in Calm   4.0 mph 52% 0.04 in meteobridge W/m2
20:59 44.4 °F 27.9 °F 30.23 in SE 4.0 mph 6.0 mph 52% 0.05 in meteobridge W/m2
21:04 44.6 °F 28.0 °F 30.24 in Calm   4.0 mph 52% 0.04 in meteobridge W/m2
21:09 44.4 °F 27.9 °F 30.22 in SE 2.0 mph 4.0 mph 52% 0.04 in meteobridge W/m2
21:14 44.4 °F 27.9 °F 30.21 in Calm   1.0 mph 52% 0.04 in meteobridge W/m2
21:18 44.4 °F 27.9 °F 30.21 in East 2.0 mph 3.0 mph 52% 0.04 in meteobridge W/m2
21:24 44.4 °F 27.9 °F 30.21 in SE 0.9 mph 4.0 mph 52% 0.03 in meteobridge W/m2
21:29 44.4 °F 27.9 °F 30.21 in East 0.9 mph 5.0 mph 52% 0.02 in meteobridge W/m2
21:34 44.2 °F 27.7 °F 30.22 in Calm   2.0 mph 52% 0.02 in meteobridge W/m2
21:39 44.2 °F 27.7 °F 30.23 in ESE 4.0 mph 5.0 mph 52% 0.02 in meteobridge W/m2
21:44 44.2 °F 27.7 °F 30.22 in ESE 4.0 mph 4.0 mph 52% 0.02 in meteobridge W/m2
21:49 44.2 °F 27.7 °F 30.22 in Calm   2.0 mph 52% 0.01 in meteobridge W/m2
21:54 44.2 °F 27.7 °F 30.23 in Calm   6.0 mph 52% 0.01 in meteobridge W/m2
21:59 44.4 °F 27.5 °F 30.24 in Calm     51% 0.00 in meteobridge W/m2
22:04 44.2 °F 27.7 °F 30.24 in Calm     52% 0.00 in meteobridge W/m2
22:09 44.2 °F 27.7 °F 30.24 in East 4.9 mph 6.0 mph 52% 0.00 in meteobridge W/m2
22:14 44.1 °F 27.5 °F 30.24 in Calm   7.0 mph 52% 0.00 in meteobridge W/m2
22:19 44.1 °F 27.5 °F 30.23 in Calm   7.0 mph 52% 0.01 in meteobridge W/m2
22:24 43.9 °F 27.3 °F 30.24 in Calm   4.0 mph 52% 0.02 in meteobridge W/m2
22:29 43.7 °F 27.1 °F 30.24 in Calm   4.0 mph 52% 0.02 in meteobridge W/m2
22:34 43.5 °F 27.1 °F 30.24 in East 0.9 mph 6.0 mph 52% 0.02 in meteobridge W/m2
22:38 43.3 °F 27.0 °F 30.23 in Calm   2.0 mph 52% 0.02 in meteobridge W/m2
22:44 43.3 °F 27.3 °F 30.23 in SE 4.0 mph 7.0 mph 53% 0.02 in meteobridge W/m2
22:49 43.2 °F 27.1 °F 30.24 in Calm   2.0 mph 53% 0.02 in meteobridge W/m2
22:54 43.2 °F 27.1 °F 30.24 in Calm     53% 0.02 in meteobridge W/m2
22:59 43.2 °F 27.1 °F 30.24 in Calm     53% 0.04 in meteobridge W/m2
23:04 43.2 °F 27.1 °F 30.24 in Calm   1.0 mph 53% 0.04 in meteobridge W/m2
23:09 43.0 °F 27.0 °F 30.23 in ESE 0.9 mph 4.0 mph 53% 0.04 in meteobridge W/m2
23:14 43.0 °F 27.0 °F 30.22 in Calm   7.0 mph 53% 0.04 in meteobridge W/m2
23:19 43.0 °F 27.0 °F 30.22 in Calm   6.0 mph 53% 0.03 in meteobridge W/m2
23:24 43.0 °F 27.0 °F 30.22 in Calm   5.0 mph 53% 0.02 in meteobridge W/m2
23:29 42.8 °F 26.4 °F 30.21 in SSE 2.0 mph 6.0 mph 52% 0.02 in meteobridge W/m2
23:34 42.8 °F 26.8 °F 30.21 in SSE 0.9 mph 4.0 mph 53% 0.02 in meteobridge W/m2
23:39 42.8 °F 26.4 °F 30.22 in ESE 2.0 mph 4.0 mph 52% 0.02 in meteobridge W/m2
23:44 42.6 °F 26.6 °F 30.21 in ESE 2.0 mph 4.0 mph 53% 0.02 in meteobridge W/m2
23:49 42.6 °F 26.6 °F 30.21 in South 4.0 mph 6.0 mph 53% 0.02 in meteobridge W/m2
23:54 42.6 °F 26.6 °F 30.21 in Calm   4.0 mph 53% 0.02 in meteobridge W/m2
23:59 42.6 °F 26.2 °F 30.20 in ESE 0.9 mph 7.0 mph 52% 0.00 in meteobridge W/m2
EllijayWeather
Compliments of Weather Underground - 2.5 mb